GOES 1 (SMS-C) [-] 1 08366U 75100A 21015.50274003 .00000022 00000-0 00000-0 0 9990 2 08366 9.4880 302.3184 0003454 342.1196 249.4741 1.00240353165222 GOES 2 [-] 1 10061U 77048A 21015.42380184 .00000020 00000-0 00000-0 0 9995 2 10061 10.9768 312.7479 0015810 5.8918 203.0503 0.99393880 26606 GOES 3 [-] 1 10953U 78062A 21015.65959417 -.00000108 00000-0 00000-0 0 9996 2 10953 11.2518 316.8800 0002848 30.1110 187.7342 0.99364561108871 GOES 4 [-] 1 11964U 80074A 21015.70118645 -.00000306 00000-0 00000-0 0 9991 2 11964 12.1610 320.6566 0034648 52.3223 128.9918 0.99232403107800 GOES 5 [-] 1 12472U 81049A 21015.50493015 -.00000016 00000-0 00000-0 0 9992 2 12472 12.7984 331.5519 0002913 349.1310 217.5467 1.00209515103001 GOES 6 [-] 1 14050U 83041A 21015.53199758 -.00000009 00000-0 00000-0 0 9992 2 14050 13.2552 336.6932 0002122 53.1179 156.2818 1.00225987196174 GOES 7 [-] 1 17561U 87022A 21015.58090323 .00000084 00000-0 00000-0 0 9990 2 17561 14.6444 353.0044 0007286 13.4585 179.3508 0.99895952107190 GOES 8 [-] 1 23051U 94022A 21015.67698645 -.00000049 00000-0 00000-0 0 9992 2 23051 12.7294 27.9550 0007447 328.6777 33.3893 0.98905105104560 GOES 9 [-] 1 23581U 95025A 21015.41045566 -.00000259 00000-0 00000-0 0 9997 2 23581 12.2174 28.0335 0002958 39.0113 329.7116 0.98801496 93219 GOES 10 [-] 1 24786U 97019A 21015.49334760 -.00000118 00000-0 00000-0 0 9999 2 24786 10.8391 33.8558 0025645 195.8482 345.0723 0.99122124 86459 GOES 11 [-] 1 26352U 00022A 21015.50339950 -.00000181 00000-0 00000-0 0 9996 2 26352 7.6008 63.3376 0003773 237.9026 294.2490 0.99042361 32872 GOES 12 [-] 1 26871U 01031A 21015.81635611 .00000008 00000-0 00000-0 0 9997 2 26871 8.6034 51.4660 0008525 283.6222 108.2735 0.99137398 71153 EWS-G1 (GOES 13) [+] 1 29155U 06018A 21015.86851663 .00000031 00000-0 00000-0 0 9993 2 29155 0.3611 104.3383 0006425 131.1437 254.1503 1.00273727 23536 GOES 14 [B] 1 35491U 09033A 21015.60548581 -.00000100 00000-0 00000-0 0 9995 2 35491 0.0972 238.6455 0012211 347.3975 2.9472 1.00271588 42282 GOES 15 [B] 1 36411U 10008A 21015.67742990 .00000047 00000-0 00000-0 0 9998 2 36411 0.3903 98.8613 0002249 321.7541 170.5279 1.00277712 39838 GOES 16 [+] 1 41866U 16071A 21015.79937867 -.00000254 00000-0 00000-0 0 9997 2 41866 0.0416 220.7123 0001247 109.1518 358.1493 1.00270650 15273 GOES 17 [+] 1 43226U 18022A 21015.78690392 .00000092 00000-0 00000-0 0 9994 2 43226 0.0109 228.2759 0000414 118.7727 274.4137 1.00272498 10570